DW7371 Lopez Island WA US current weather conditions

sailwx.info

Wind from 274

Air temperature 10.0° C
Dewpoint 8.9° C

Last reported at 2019-Jun-20 11:00 UTC.
Time now 2019-Jun-20 12:09 UTC

Location: N 48°32' W 122°52'.
View on Google Maps.

See reports from other nearby stations

  
Tides and Currents Weather Stations Pressure Air Temp Water Temp Dewpoint Dewpoint Depression Visibility Wind Speed Wind Dir Waves Ship Positions
date/time (UTC)wind fromknots sea level pressurealtimeterstation pressurevisibilityair tempwater tempwave heightnotes
2019-Jun-20 11:00 274 10.0
2019-Jun-20 10:50 278 0 gusting 3 10.0
2019-Jun-20 10:40 281 1 gusting 6 10.0
2019-Jun-20 10:30 262 3 gusting 7 10.0
2019-Jun-20 10:20 236 4 gusting 6 10.0
2019-Jun-20 10:10 243 3 gusting 6 10.0
2019-Jun-20 10:00 235 5 gusting 7 10.0
2019-Jun-20 09:50 243 5 gusting 9 10.0
2019-Jun-20 09:40 232 6 gusting 9 10.6
2019-Jun-20 09:30 234 6 gusting 8 10.6
2019-Jun-20 09:20 241 4 gusting 9 10.6
2019-Jun-20 09:10 232 5 gusting 8 10.6
2019-Jun-20 09:00 226 6 gusting 10 10.6
2019-Jun-20 08:50 222 5 gusting 9 10.6
2019-Jun-20 08:40 226 8 gusting 9 10.6
2019-Jun-20 08:30 245 4 gusting 8 10.6
2019-Jun-20 08:20 262 6 gusting 6 10.6
2019-Jun-20 08:10 274 5 gusting 8 10.6
2019-Jun-20 08:00 252 6 gusting 9 11.1
2019-Jun-20 07:50 270 3 gusting 8 11.1
2019-Jun-20 07:40 255 8 gusting 8 11.1
2019-Jun-20 07:30 243 7 gusting 10 11.1
2019-Jun-20 07:20 244 5 gusting 9 11.7
2019-Jun-20 07:10 245 4 gusting 10 11.7
2019-Jun-20 07:00 241 5 gusting 12 11.7
2019-Jun-20 06:50 247 4 gusting 11 11.7
2019-Jun-20 06:40 246 8 gusting 10 11.7
2019-Jun-20 06:30 262 6 gusting 7 11.7
2019-Jun-20 06:20 252 2 gusting 11 11.7
2019-Jun-20 06:10 262 6 gusting 11 11.7
2019-Jun-20 06:00 276 6 gusting 13 11.7
2019-Jun-20 05:50 256 9 gusting 13 11.7
2019-Jun-20 05:40 258 7 gusting 14 11.7
2019-Jun-20 05:30 260 12 gusting 13 11.7
2019-Jun-20 05:20 242 7 gusting 14 11.7
2019-Jun-20 05:10 245 13 gusting 14 12.2
2019-Jun-20 05:00 248 8 gusting 13 12.2
2019-Jun-20 04:50 264 9 gusting 13 12.2
2019-Jun-20 04:40 267 6 gusting 14 12.2
2019-Jun-20 04:30 238 7 gusting 15 12.2
2019-Jun-20 04:20 249 13 gusting 19 12.2
2019-Jun-20 04:10 258 8 gusting 14 12.2
2019-Jun-20 04:00 244 13 gusting 14 12.8
2019-Jun-20 03:50 228 7 gusting 15 12.8
2019-Jun-20 03:40 239 11 gusting 15 12.8
2019-Jun-20 03:30 258 8 gusting 20 13.3
2019-Jun-20 03:20 237 11 gusting 16 13.3
2019-Jun-20 03:10 224 13 gusting 17 13.3
2019-Jun-20 03:00 249 8 gusting 18 13.3
2019-Jun-20 02:50 256 14 gusting 18 13.3
2019-Jun-20 02:40 237 9 gusting 18 13.3
2019-Jun-20 02:30 233 9 gusting 17 13.3
2019-Jun-20 02:20 229 13 gusting 18 13.9
2019-Jun-20 02:10 243 12 gusting 19 14.4
2019-Jun-20 02:00 221 16 gusting 19 14.4
2019-Jun-20 01:50 224 8 gusting 17 14.4
2019-Jun-20 01:40 238 13 gusting 19 14.4
2019-Jun-20 01:30 251 9 gusting 22 14.4
2019-Jun-20 01:20 245 16 gusting 23 14.4
2019-Jun-20 01:10 231 17 gusting 21 14.4
2019-Jun-20 01:00 231 13 gusting 19 15.0
2019-Jun-20 00:50 241 8 gusting 23 15.0
2019-Jun-20 00:40 240 14 gusting 25 15.6
2019-Jun-20 00:30 231 11 gusting 24 16.1
2019-Jun-20 00:20 232 17 gusting 22 16.7
2019-Jun-20 00:10 237 13 gusting 24 16.1
2019-Jun-20 00:00 248 11 gusting 22 16.7
2019-Jun-19 23:50 263 13 gusting 23 16.7
2019-Jun-19 23:40 266 15 gusting 27 16.7
2019-Jun-19 23:30 240 12 gusting 26 16.7
2019-Jun-19 23:20 254 18 gusting 26 16.7
2019-Jun-19 23:10 257 14 gusting 32 17.2
2019-Jun-19 23:00 242 15 gusting 24 17.2
2019-Jun-19 22:50 251 20 gusting 29 16.7
2019-Jun-19 22:40 256 17 gusting 24 16.7
2019-Jun-19 22:30 233 15 gusting 22 16.7
2019-Jun-19 22:20 278 13 gusting 23 16.7
2019-Jun-19 22:10 231 13 gusting 22 16.7
2019-Jun-19 22:00 256 9 gusting 24 17.2
2019-Jun-19 21:50 253 9 gusting 23 16.7
2019-Jun-19 21:40 245 10 gusting 23 16.1
2019-Jun-19 21:30 247 13 gusting 24 16.1
2019-Jun-19 21:20 228 17 gusting 24 16.7
2019-Jun-19 21:10 230 13 gusting 24 16.7
2019-Jun-19 21:00 232 13 gusting 24 16.1
2019-Jun-19 20:50 244 13 gusting 24 15.6
2019-Jun-19 20:40 232 11 gusting 25 15.6
2019-Jun-19 20:30 231 16 gusting 22 15.6
2019-Jun-19 20:20 226 15 gusting 26 16.1
2019-Jun-19 20:10 255 13 gusting 26 16.7
2019-Jun-19 20:00 230 13 gusting 25 16.1
2019-Jun-19 19:50 277 11 gusting 23 16.7
2019-Jun-19 19:40 232 18 gusting 21 16.7
2019-Jun-19 19:30 231 13 gusting 19 16.1
2019-Jun-19 19:20 243 9 gusting 19 15.6
2019-Jun-19 19:10 210 11 gusting 19 15.6
2019-Jun-19 19:00 224 13 gusting 18 15.6
2019-Jun-19 18:50 234 13 gusting 17 15.0
2019-Jun-19 18:40 217 9 gusting 17 15.0
2019-Jun-19 18:30 234 14 gusting 15 15.0
2019-Jun-19 18:20 240 9 gusting 13 14.4
2019-Jun-19 18:10 259 7 gusting 13 15.0
2019-Jun-19 18:00 222 5 gusting 13 14.4
2019-Jun-19 17:50 266 7 gusting 14 14.4
2019-Jun-19 17:40 245 10 gusting 14 14.4
2019-Jun-19 17:30 238 13 gusting 17 14.4
2019-Jun-19 17:20 222 12 gusting 17 14.4
2019-Jun-19 17:10 216 14 gusting 19 14.4
2019-Jun-19 17:00 231 7 gusting 19 13.9
2019-Jun-19 16:50 256 14 gusting 17 13.9
2019-Jun-19 16:40 226 13 gusting 17 13.9
2019-Jun-19 16:30 225 18 gusting 18 13.9
2019-Jun-19 16:20 233 14 gusting 18 13.9
2019-Jun-19 16:10 234 14 gusting 18 13.3
2019-Jun-19 16:00 239 16 gusting 19 13.3
2019-Jun-19 15:50 210 8 gusting 17 13.3
2019-Jun-19 15:40 235 13 gusting 17 12.8
2019-Jun-19 15:30 241 12 gusting 21 12.8
2019-Jun-19 15:20 250 11 gusting 16 12.2
2019-Jun-19 15:10 243 10 gusting 15 12.2
2019-Jun-19 15:00 230 13 gusting 15 12.2
2019-Jun-19 14:50 263 9 gusting 15 12.2
2019-Jun-19 14:40 267 6 gusting 13 12.2
2019-Jun-19 14:30 228 8 gusting 11 12.2
2019-Jun-19 14:20 227 7 gusting 14 12.2
2019-Jun-19 14:10 240 9 gusting 15 12.2
2019-Jun-19 14:00 222 12 gusting 16 11.7
2019-Jun-19 13:50 228 8 gusting 14 11.7
2019-Jun-19 13:40 232 11 gusting 18 11.7
2019-Jun-19 13:30 245 12 gusting 18 11.7
2019-Jun-19 13:20 235 10 gusting 18 11.7
2019-Jun-19 13:10 233 12 gusting 16 11.7
2019-Jun-19 13:00 262 7 gusting 15 11.7
2019-Jun-19 12:50 252 9 gusting 14 11.7
2019-Jun-19 12:40 235 11 gusting 16 11.1
2019-Jun-19 12:30 247 7 gusting 14 11.1
2019-Jun-19 12:20 248 7 gusting 13 11.1
2019-Jun-19 12:10 235 8 gusting 12 11.1
2019-Jun-19 12:00 262 6 gusting 11 11.1
2019-Jun-19 11:50 239 7 gusting 12 11.1
2019-Jun-19 11:40 241 8 gusting 13 11.1
2019-Jun-19 11:30 249 9 gusting 14 11.1
2019-Jun-19 11:20 254 9 gusting 14 11.1
2019-Jun-19 11:10 251 13 gusting 14 11.1
2019-Jun-19 11:00 256 9 gusting 13 11.1
2019-Jun-19 10:50 255 9 gusting 14 11.1
2019-Jun-19 10:40 229 12 gusting 13 11.1
2019-Jun-19 10:30 258 8 gusting 13 11.1
2019-Jun-19 10:20 237 6 gusting 11 11.1
2019-Jun-19 10:10 245 5 gusting 13 11.1
2019-Jun-19 10:00 244 8 gusting 14 11.1
2019-Jun-19 09:50 237 7 gusting 14 11.1
2019-Jun-19 09:40 243 7 gusting 16 11.7
2019-Jun-19 09:30 262 13 gusting 19 11.7
2019-Jun-19 09:20 233 17 gusting 19 11.7
2019-Jun-19 09:10 256 17 gusting 19 11.7
2019-Jun-19 09:00 254 6 gusting 18 11.7
2019-Jun-19 08:50 244 14 gusting 18 11.7
2019-Jun-19 08:40 256 11 gusting 19 11.7
2019-Jun-19 08:30 238 18 gusting 19 11.7
2019-Jun-19 08:20 262 14 gusting 19 11.7
2019-Jun-19 08:10 251 15 gusting 20 11.7
2019-Jun-19 08:00 243 15 gusting 20 11.7
2019-Jun-19 07:50 245 14 gusting 18 11.7
2019-Jun-19 07:40 241 14 gusting 19 11.7
2019-Jun-19 07:30 225 12 gusting 19 11.7
2019-Jun-19 07:20 232 12 gusting 18 11.7
2019-Jun-19 07:10 239 15 gusting 19 11.7
2019-Jun-19 07:00 224 13 gusting 21 11.7
2019-Jun-19 06:50 241 13 gusting 20 11.7
2019-Jun-19 06:40 246 19 gusting 21 11.7
2019-Jun-19 06:30 235 14 gusting 22 11.7
2019-Jun-19 06:20 256 14 gusting 26 11.7
2019-Jun-19 06:10 256 14 gusting 25 11.7
2019-Jun-19 06:00 254 17 gusting 25 11.7
2019-Jun-19 05:50 241 14 gusting 22 11.7
2019-Jun-19 05:40 262 13 gusting 20 11.7
2019-Jun-19 05:30 247 12 gusting 19 11.7
2019-Jun-19 05:20 244 12 gusting 19 11.7
2019-Jun-19 05:10 237 15 gusting 21 12.2
2019-Jun-19 05:00 237 15 gusting 20 12.2
2019-Jun-19 04:50 246 13 gusting 24 12.2
2019-Jun-19 04:40 225 16 gusting 21 12.2
2019-Jun-19 04:30 226 15 gusting 20 12.2
2019-Jun-19 04:20 233 15 gusting 21 12.2
2019-Jun-19 04:10 235 14 gusting 22 12.2
2019-Jun-19 04:00 228 13 gusting 21 12.8
2019-Jun-19 03:50 228 14 gusting 22 12.8
2019-Jun-19 03:40 236 18 gusting 21 13.3
2019-Jun-19 03:30 242 14 gusting 18 13.9
2019-Jun-19 03:20 224 10 gusting 18 14.4
2019-Jun-19 03:10 231 15 gusting 16 15.0
2019-Jun-19 03:00 245 12 gusting 18 15.6
2019-Jun-19 02:50 254 13 gusting 16 15.6
2019-Jun-19 02:40 249 8 gusting 17 15.6
2019-Jun-19 02:30 229 11 gusting 16 15.6
2019-Jun-19 02:20 232 11 gusting 17 16.1
2019-Jun-19 02:10 229 11 gusting 17 16.1
2019-Jun-19 02:00 227 8 gusting 13 16.1
2019-Jun-19 01:50 226 9 gusting 15 16.7
2019-Jun-19 01:40 206 8 gusting 16 16.7
2019-Jun-19 01:30 239 12 gusting 18 16.7
2019-Jun-19 01:20 226 17 gusting 19 17.2
2019-Jun-19 01:10 221 16 gusting 18 17.2
2019-Jun-19 01:00 232 11 gusting 15 17.8
2019-Jun-19 00:50 239 15 gusting 15 18.3
2019-Jun-19 00:40 245 8 gusting 14 18.9
2019-Jun-19 00:30 239 9 gusting 15 18.9
2019-Jun-19 00:20 226 12 gusting 13 18.9
2019-Jun-19 00:10 224 8 gusting 13 18.9
2019-Jun-19 00:00 199 7 gusting 13 18.9
2019-Jun-18 23:50 241 10 gusting 15 18.9
2019-Jun-18 23:40 239 13 gusting 16 18.9
2019-Jun-18 23:30 204 9 gusting 16 18.9
2019-Jun-18 23:20 194 15 gusting 16 18.3
2019-Jun-18 23:10 185 13 gusting 15 18.3
2019-Jun-18 23:00 185 13 gusting 14 18.3
2019-Jun-18 22:50 196 10 gusting 15 18.3
2019-Jun-18 22:40 225 7 gusting 14 18.3
2019-Jun-18 22:30 222 11 gusting 13 18.3
2019-Jun-18 22:20 206 13 gusting 15 18.3
2019-Jun-18 22:10 211 7 gusting 13 18.9
2019-Jun-18 22:00 202 6 gusting 13 18.9
2019-Jun-18 21:50 220 7 gusting 14 18.3
2019-Jun-18 21:40 197 10 gusting 13 17.8
2019-Jun-18 21:10 235 8 gusting 17 17.8
2019-Jun-18 21:00 238 7 gusting 16 17.2
2019-Jun-18 20:50 221 13 gusting 18 17.2
2019-Jun-18 20:40 230 12 gusting 17 17.2
2019-Jun-18 20:30 230 13 gusting 15 16.7
2019-Jun-18 20:20 218 11 gusting 18 17.2
2019-Jun-18 20:10 226 15 gusting 17 17.2
2019-Jun-18 20:00 234 11 gusting 16 17.2
2019-Jun-18 19:50 235 13 gusting 16 17.2
2019-Jun-18 19:40 234 13 gusting 16 17.2
2019-Jun-18 19:30 264 13 gusting 16 17.2
2019-Jun-18 19:20 239 13 gusting 17 17.2
2019-Jun-18 19:10 226 15 gusting 17 16.7
2019-Jun-18 19:00 246 10 gusting 16 17.2
2019-Jun-18 18:50 220 9 gusting 15 17.2
2019-Jun-18 18:40 244 10 gusting 14 17.2
2019-Jun-18 18:30 243 10 gusting 14 17.2
2019-Jun-18 18:20 249 13 gusting 15 16.7
2019-Jun-18 18:10 252 11 gusting 16 16.7
2019-Jun-18 18:00 239 13 gusting 16 17.2
2019-Jun-18 17:50 239 8 gusting 13 17.2
2019-Jun-18 17:40 245 8 gusting 13 17.2
2019-Jun-18 17:30 227 11 gusting 12 17.2
2019-Jun-18 17:20 237 6 gusting 11 16.7
2019-Jun-18 17:10 226 8 gusting 11 16.7
2019-Jun-18 17:00 220 6 gusting 8 16.1
2019-Jun-18 16:50 213 5 gusting 11 16.1
2019-Jun-18 16:40 214 6 gusting 12 15.6
2019-Jun-18 16:30 233 7 gusting 12 15.6
2019-Jun-18 16:20 239 10 gusting 13 16.1
2019-Jun-18 16:10 227 10 gusting 13 15.6
2019-Jun-18 16:00 226 12 gusting 12 15.6
2019-Jun-18 15:50 243 7 gusting 13 15.6
2019-Jun-18 15:40 238 10 gusting 12 15.6
2019-Jun-18 15:30 233 5 gusting 10 15.6
2019-Jun-18 15:20 221 2 gusting 9 15.0
2019-Jun-18 15:10 200 3 gusting 6 14.4
2019-Jun-18 15:00 185 4 gusting 10 13.3
2019-Jun-18 14:50 224 3 gusting 8 13.3
2019-Jun-18 14:40 231 8 gusting 9 13.3
2019-Jun-18 14:30 229 7 gusting 10 13.3
2019-Jun-18 14:20 233 8 gusting 11 13.3
2019-Jun-18 14:10 231 10 gusting 10 13.3
2019-Jun-18 14:00 235 5 gusting 8 13.3
2019-Jun-18 13:50 263 7 gusting 9 13.3
2019-Jun-18 13:40 199 1 gusting 10 12.8
2019-Jun-18 13:30 247 9 gusting 10 12.8
2019-Jun-18 13:20 247 9 gusting 11 12.8
2019-Jun-18 13:10 235 3 gusting 11 12.8
2019-Jun-18 13:00 235 7 gusting 12 12.8
2019-Jun-18 12:50 245 8 gusting 13 12.8
2019-Jun-18 12:40 243 9 gusting 13 12.8
2019-Jun-18 12:30 231 5 gusting 12 12.8
2019-Jun-18 12:20 258 12 gusting 12 12.8
2019-Jun-18 12:10 256 6 gusting 11 12.8
2019-Jun-18 12:00 256 6 gusting 12 12.8